Change the Weather History Date:

Monday, November 19, 2012

  Actual Average Record
Temperature  
Mean Temperature 83 °F -  
Max Temperature 89 °F 83 °F 93 °F (2011)
Min Temperature 77 °F 74 °F 73 °F (2001)
Cooling Degree Days 18    
Growing Degree Days 33 (Base 50)    
Moisture  
Dew Point 74 °F    
Average Humidity 70    
Maximum Humidity 91    
Minimum Humidity 55    
Precipitation  
Precipitation 0.00 in - - ()
Sea Level Pressure  
Sea Level Pressure 29.85 in    
Wind  
Wind Speed 3 mph ()    
Max Wind Speed 7 mph    
Max Gust Speed -    
Visibility 6.1 miles    
Events      
Averages and records for this station are not official NWS values.
T = Trace of Precipitation, MM = Missing Value Source: Averaged Metar Reports

Daily Weather History Graph

Daily Weather History Graph

Search for Another Location

Airport or City:

Trip Planner

Search our weather history database for the weather conditions in past years. The results will help you decide how hot, cold, wet, or windy it might be!

Date:

Astronomy

Nov. 19, 2012 Rise Set
Actual Time 5:58 AM ICT 5:33 PM ICT
Civil Twilight 5:36 AM ICT 5:55 PM ICT
Nautical Twilight 5:10 AM ICT 6:21 PM ICT
Astronomical Twilight 4:45 AM ICT 6:46 PM ICT
Moon 10:59 AM ICT (11/19) 11:02 PM ICT (11/19)
Length of Visible Light 12h 18m
Length of Day
11h 34m
Waxing Crescent, 35% of the Moon is Illuminated
Nov 19
Waxing Crescent
Nov 20
First Quarter
Nov 28
Full
Dec 6
Last Quarter
Dec 13
New

Hourly Weather History & Observations

Time (ICT) Temp. Heat Index Dew Point Humidity Pressure Visibility Wind Dir Wind Speed Gust Speed Precip Events Conditions
12:00 AM 80.6 °F 87.1 °F 77.0 °F 89% 29.89 in 5.6 mi NNE 3.5 mph - N/A   Scattered Clouds
12:30 AM 80.6 °F 87.1 °F 77.0 °F 89% 29.89 in 5.6 mi North 3.5 mph - N/A   Scattered Clouds
1:00 AM 80.6 °F 87.1 °F 77.0 °F 89% 29.89 in 5.6 mi Calm Calm - N/A   Scattered Clouds
6:00 AM 80.6 °F 86.2 °F 75.2 °F 84% 29.86 in 6.2 mi NE 6.9 mph - N/A   Scattered Clouds
7:00 AM 81 °F - 79 °F 91% 29.57 in 6 mi SE 4.5 mph - -   Overcast
7:00 AM 80.6 °F 86.2 °F 75.2 °F 84% 29.89 in - North - - N/A   Scattered Clouds
7:30 AM 80.6 °F 86.2 °F 75.2 °F 84% 29.89 in - North - - N/A   Scattered Clouds
8:00 AM 80.6 °F 85.4 °F 73.4 °F 79% 29.89 in - North - - N/A   Scattered Clouds
8:30 AM 80.6 °F 85.4 °F 73.4 °F 79% 29.89 in - North - - N/A   Scattered Clouds
9:00 AM 82.4 °F 88.2 °F 73.4 °F 74% 29.89 in 6.2 mi North 4.6 mph - N/A   Scattered Clouds
9:30 AM 84.2 °F 90.9 °F 73.4 °F 70% 29.92 in 6.2 mi WNW 3.5 mph - N/A   Scattered Clouds
10:00 AM 84.2 °F 90.9 °F 73.4 °F 70% 29.92 in 6.2 mi NW 3.5 mph - N/A   Scattered Clouds
10:30 AM 86.0 °F 93.4 °F 73.4 °F 66% 29.89 in 6.2 mi North 3.5 mph - N/A   Partly Cloudy
11:00 AM 86.0 °F 93.4 °F 73.4 °F 66% 29.89 in 6.2 mi NE 2.3 mph - N/A   Partly Cloudy
11:30 AM 87.8 °F 95.6 °F 73.4 °F 62% 29.86 in 6.2 mi NNW 6.9 mph - N/A   Partly Cloudy
12:00 PM 89.6 °F 98.2 °F 73.4 °F 59% 29.86 in 6.2 mi WNW 3.5 mph - N/A   Partly Cloudy
12:30 PM 87.8 °F 95.6 °F 73.4 °F 62% 29.83 in 6.2 mi NW 4.6 mph - N/A   Scattered Clouds
1:00 PM 89.6 °F 98.2 °F 73.4 °F 59% 29.83 in 6.2 mi NNW 5.8 mph - N/A   Scattered Clouds
1:30 PM 89.6 °F 96.2 °F 71.6 °F 55% 29.80 in 6.2 mi WNW 5.8 mph - N/A   Scattered Clouds
2:00 PM 89.6 °F 96.2 °F 71.6 °F 55% 29.80 in 6.2 mi East 4.6 mph - N/A   Scattered Clouds
2:30 PM 87.8 °F 93.8 °F 71.6 °F 58% 29.80 in 6.2 mi NE 3.5 mph - N/A   Scattered Clouds
3:00 PM 87.8 °F 93.8 °F 71.6 °F 58% 29.80 in 6.2 mi North 2.3 mph - N/A   Scattered Clouds
3:30 PM 89.6 °F 98.2 °F 73.4 °F 59% 29.77 in 6.2 mi East 3.5 mph - N/A   Scattered Clouds
4:00 PM 89.6 °F 96.2 °F 71.6 °F 55% 29.77 in 6.2 mi East 4.6 mph - N/A   Scattered Clouds
4:30 PM 89.6 °F 96.2 °F 71.6 °F 55% 29.80 in 6.2 mi Calm Calm - N/A   Scattered Clouds
5:00 PM 86.0 °F 90.4 °F 69.8 °F 58% 29.80 in 6.2 mi NNW 4.6 mph - N/A   Scattered Clouds
5:30 PM 87.8 °F 93.8 °F 71.6 °F 58% 29.80 in 6.2 mi NNW 3.5 mph - N/A   Scattered Clouds
6:00 PM 86.0 °F 93.4 °F 73.4 °F 66% 29.80 in 6.2 mi West 2.3 mph - N/A   Scattered Clouds
6:30 PM 87.8 °F 99.7 °F 77.0 °F 70% 29.83 in 6.2 mi South 3.5 mph - N/A   Scattered Clouds
7:00 PM 87.8 °F 99.7 °F 77.0 °F 70% 29.83 in 5.6 mi SSE 2.3 mph - N/A   Scattered Clouds
7:30 PM 84.2 °F 90.9 °F 73.4 °F 70% 29.83 in 5.6 mi SSW 2.3 mph - N/A   Scattered Clouds
8:00 PM 86.0 °F 95.1 °F 75.2 °F 70% 29.86 in 5.6 mi NNW 3.5 mph - N/A   Scattered Clouds
8:30 PM 80.6 °F 84.6 °F 71.6 °F 74% 29.86 in 6.2 mi South 2.3 mph - N/A   Scattered Clouds
9:00 PM - - - N/A% 29.86 in 6.2 mi SSW 3.5 mph - N/A   Scattered Clouds
10:00 PM - - - N/A% 29.89 in 6.2 mi South 2.3 mph - N/A   Scattered Clouds
10:30 PM 84.2 °F 94.1 °F 77.0 °F 79% 29.89 in 6.2 mi South 2.3 mph - N/A   Scattered Clouds
11:00 PM 84.2 °F 94.1 °F 77.0 °F 79% 29.89 in 6.2 mi South 3.5 mph - N/A   Scattered Clouds
11:30 PM 84.2 °F 94.1 °F 77.0 °F 79% 29.89 in 6.2 mi South 6.9 mph - N/A   Scattered Clouds